TimeCDT,TemperatureF,Dew PointF,Humidity,Sea Level PressureIn,VisibilityMPH,Wind Direction,Wind SpeedMPH,Gust SpeedMPH,PrecipitationIn,Events,Conditions,WindDirDegrees,DateUTC
12:15 AM,68.4,53.1,58,30.04,10.0,ESE,3.5,-,N/A,,Clear,110,2013-07-20 05:15:00
12:35 AM,68.2,52.7,58,30.03,10.0,SSE,4.6,-,N/A,,Clear,150,2013-07-20 05:35:00
12:55 AM,69.6,53.1,56,30.03,10.0,South,5.8,-,N/A,,Clear,170,2013-07-20 05:55:00
1:15 AM,71.8,53.8,53,30.02,10.0,South,6.9,-,N/A,,Clear,170,2013-07-20 06:15:00
1:35 AM,71.8,54.1,54,30.02,10.0,South,3.5,-,N/A,,Clear,180,2013-07-20 06:35:00
1:55 AM,66.9,53.8,63,30.01,10.0,SSE,3.5,-,N/A,,Clear,150,2013-07-20 06:55:00
2:15 AM,67.8,54.1,62,30.00,10.0,South,6.9,-,N/A,,Clear,170,2013-07-20 07:15:00
2:35 AM,68.5,54.1,60,30.00,10.0,South,4.6,-,N/A,,Clear,190,2013-07-20 07:35:00
2:55 AM,62.8,53.8,72,30.01,10.0,Calm,Calm,-,N/A,,Clear,0,2013-07-20 07:55:00
3:15 AM,62.8,54.7,75,30.01,10.0,Calm,Calm,-,N/A,,Clear,0,2013-07-20 08:15:00
3:35 AM,62.6,54.1,74,30.02,10.0,Calm,Calm,-,N/A,,Clear,0,2013-07-20 08:35:00
3:55 AM,62.8,54.0,73,30.00,10.0,SSE,5.8,-,N/A,,Clear,150,2013-07-20 08:55:00
4:15 AM,61.5,54.1,77,30.00,10.0,Calm,Calm,-,N/A,,Clear,0,2013-07-20 09:15:00
4:35 AM,63.0,54.3,73,30.00,10.0,Calm,Calm,-,N/A,,Clear,0,2013-07-20 09:35:00
4:55 AM,62.6,54.7,75,30.00,10.0,Calm,Calm,-,N/A,,Clear,0,2013-07-20 09:55:00
5:15 AM,62.2,54.7,76,30.00,10.0,Calm,Calm,-,N/A,,Clear,0,2013-07-20 10:15:00
5:35 AM,63.0,54.5,74,29.99,10.0,Calm,Calm,-,N/A,,Clear,0,2013-07-20 10:35:00
5:55 AM,61.2,54.7,79,29.99,10.0,ENE,3.5,-,N/A,,Clear,70,2013-07-20 10:55:00
6:15 AM,61.2,54.7,79,29.99,10.0,Calm,Calm,-,N/A,,Clear,0,2013-07-20 11:15:00
6:35 AM,62.4,55.6,78,29.99,10.0,Calm,Calm,-,N/A,,Clear,0,2013-07-20 11:35:00
6:55 AM,61.0,55.4,82,30.00,10.0,Calm,Calm,-,N/A,,Clear,0,2013-07-20 11:55:00
7:15 AM,61.9,56.3,82,30.00,10.0,Calm,Calm,-,N/A,,Clear,0,2013-07-20 12:15:00
7:35 AM,63.7,56.8,78,30.02,10.0,NE,8.1,-,N/A,,Clear,50,2013-07-20 12:35:00
7:55 AM,65.5,57.4,75,30.03,10.0,ENE,5.8,-,N/A,,Clear,70,2013-07-20 12:55:00
8:15 AM,68.2,58.5,71,30.03,10.0,East,9.2,-,N/A,,Clear,80,2013-07-20 13:15:00
8:35 AM,70.2,59.4,69,30.03,10.0,ENE,8.1,-,N/A,,Clear,70,2013-07-20 13:35:00
8:55 AM,71.6,58.6,64,30.03,10.0,ENE,11.5,-,N/A,,Clear,60,2013-07-20 13:55:00
9:15 AM,72.0,57.2,60,30.04,10.0,East,15.0,-,N/A,,Scattered Clouds,80,2013-07-20 14:15:00
9:35 AM,72.3,56.3,57,30.05,10.0,ENE,18.4,23.0,N/A,,Overcast,70,2013-07-20 14:35:00
9:55 AM,71.6,56.3,58,30.05,10.0,ENE,17.3,-,N/A,,Overcast,60,2013-07-20 14:55:00
10:15 AM,73.4,55.2,53,30.06,10.0,East,19.6,23.0,N/A,,Overcast,80,2013-07-20 15:15:00
10:35 AM,73.4,55.2,53,30.07,10.0,East,16.1,23.0,N/A,,Mostly Cloudy,100,2013-07-20 15:35:00
10:55 AM,72.7,55.0,54,30.07,10.0,East,13.8,21.9,N/A,,Overcast,100,2013-07-20 15:55:00
11:15 AM,74.3,55.4,52,30.07,10.0,East,15.0,-,N/A,,Overcast,100,2013-07-20 16:15:00
11:35 AM,76.1,55.8,49,30.06,10.0,East,15.0,21.9,N/A,,Mostly Cloudy,100,2013-07-20 16:35:00
11:55 AM,77.2,55.8,47,30.05,10.0,ESE,12.7,19.6,N/A,,Mostly Cloudy,110,2013-07-20 16:55:00
12:15 PM,79.2,56.3,45,30.05,10.0,ESE,13.8,20.7,N/A,,Scattered Clouds,110,2013-07-20 17:15:00
12:35 PM,81.0,56.1,42,30.03,10.0,SE,13.8,20.7,N/A,,Clear,130,2013-07-20 17:35:00
12:55 PM,82.8,56.3,40,30.02,10.0,SE,18.4,21.9,N/A,,Clear,140,2013-07-20 17:55:00
1:15 PM,83.3,55.8,39,29.99,10.0,SE,19.6,25.3,N/A,,Clear,140,2013-07-20 18:15:00
1:35 PM,84.6,56.1,38,29.98,10.0,SSE,23.0,29.9,N/A,,Clear,150,2013-07-20 18:35:00
1:55 PM,85.1,56.7,38,29.96,10.0,SSE,23.0,27.6,N/A,,Clear,150,2013-07-20 18:55:00
2:15 PM,86.4,56.5,36,29.95,10.0,SSE,19.6,29.9,N/A,,Clear,150,2013-07-20 19:15:00
2:35 PM,88.0,56.5,34,29.95,10.0,SSE,20.7,26.5,N/A,,Clear,150,2013-07-20 19:35:00
2:55 PM,87.8,57.4,36,29.95,10.0,SSE,19.6,24.2,N/A,,Clear,160,2013-07-20 19:55:00
3:15 PM,88.9,56.7,33,29.95,10.0,SSE,16.1,21.9,N/A,,Clear,160,2013-07-20 20:15:00
3:35 PM,88.9,56.7,33,29.93,10.0,SSE,18.4,23.0,N/A,,Clear,160,2013-07-20 20:35:00
3:55 PM,87.8,57.4,36,29.94,10.0,SSE,13.8,23.0,N/A,,Clear,160,2013-07-20 20:55:00
4:15 PM,89.2,56.8,33,29.93,10.0,South,13.8,19.6,N/A,,Scattered Clouds,180,2013-07-20 21:15:00
4:35 PM,89.8,56.7,32,29.93,10.0,South,15.0,23.0,N/A,,Scattered Clouds,180,2013-07-20 21:35:00
4:55 PM,88.7,57.4,35,29.93,10.0,South,16.1,24.2,N/A,,Mostly Cloudy,170,2013-07-20 21:55:00
5:15 PM,89.8,57.0,33,29.93,10.0,SSE,17.3,23.0,N/A,,Mostly Cloudy,160,2013-07-20 22:15:00
5:35 PM,88.9,56.5,33,29.92,10.0,SE,15.0,26.5,N/A,,Scattered Clouds,140,2013-07-20 22:35:00
5:55 PM,88.9,56.7,33,29.91,10.0,SSE,13.8,19.6,N/A,,Clear,160,2013-07-20 22:55:00
6:15 PM,88.5,57.2,34,29.91,10.0,SE,17.3,23.0,N/A,,Clear,140,2013-07-20 23:15:00
6:35 PM,88.0,57.2,35,29.89,10.0,SSE,17.3,20.7,N/A,,Clear,150,2013-07-20 23:35:00
6:55 PM,86.9,56.8,36,29.89,10.0,SSE,19.6,25.3,N/A,,Clear,150,2013-07-20 23:55:00
7:15 PM,84.7,56.3,38,29.89,10.0,SSE,15.0,20.7,N/A,,Clear,150,2013-07-21 00:15:00
7:35 PM,83.8,55.8,38,29.89,10.0,SE,15.0,23.0,N/A,,Clear,140,2013-07-21 00:35:00
7:55 PM,82.6,56.3,40,29.92,10.0,SE,10.4,-,N/A,,Clear,130,2013-07-21 00:55:00
8:15 PM,81.7,56.7,42,29.92,10.0,SE,15.0,19.6,N/A,,Mostly Cloudy,130,2013-07-21 01:15:00
8:35 PM,66.7,55.0,66,30.01,10.0,NNW,20.7,36.8,0.03,Rain-Thunderstorm,Heavy Thunderstorms and Rain,330,2013-07-21 01:35:00
8:55 PM,61.5,58.5,90,30.02,0.2,NNE,26.5,40.3,1.02,Rain-Thunderstorm,Heavy Thunderstorms and Rain,20,2013-07-21 01:55:00
9:15 PM,61.9,58.1,87,30.03,5.0,SW,9.2,23.0,0.15,Rain-Thunderstorm,Heavy Thunderstorms and Rain,230,2013-07-21 02:15:00
9:35 PM,63.0,58.3,85,30.01,10.0,South,6.9,-,0.17,Rain-Thunderstorm,Thunderstorms and Rain,170,2013-07-21 02:35:00
9:55 PM,64.9,56.7,74,30.01,10.0,SSE,6.9,-,0.19,Rain-Thunderstorm,Thunderstorms and Rain,160,2013-07-21 02:55:00
10:15 PM,64.6,57.2,77,29.95,7.0,SE,17.3,-,0.06,Rain-Thunderstorm,Thunderstorms and Rain,130,2013-07-21 03:15:00
10:35 PM,65.5,57.0,74,29.93,10.0,SSE,17.3,21.9,0.07,Thunderstorm,Mostly Cloudy,150,2013-07-21 03:35:00
10:55 PM,65.1,57.2,75,29.94,10.0,SSE,17.3,24.2,0.07,,Scattered Clouds,150,2013-07-21 03:55:00
11:15 PM,65.3,56.7,74,29.97,10.0,SSE,15.0,-,N/A,,Clear,160,2013-07-21 04:15:00
11:35 PM,64.8,56.7,75,29.95,10.0,South,15.0,-,N/A,,Clear,170,2013-07-21 04:35:00
11:55 PM,64.0,57.2,78,29.96,10.0,South,3.5,-,N/A,,Scattered Clouds,180,2013-07-21 04:55:00